Weather History for KCNM - February, 2014

Change the Weather History Date:

Friday, February 7, 2014

  Actual Average Record
Temperature  
Mean Temperature 40 °F -  
Max Temperature 55 °F - - ()
Min Temperature 24 °F - - ()
Degree Days  
Heating Degree Days 26    
Moisture  
Dew Point 20 °F    
Average Humidity 54    
Maximum Humidity 75    
Minimum Humidity 29    
Precipitation  
Precipitation 0.00 in - - ()
Sea Level Pressure  
Sea Level Pressure 30.06 in    
Wind  
Wind Speed 13 mph (SSE)    
Max Wind Speed 16 mph    
Max Gust Speed 23 mph    
Visibility 10 miles    
Events      
T = Trace of Precipitation, MM = Missing Value Source: NWS Daily Summary

Daily Weather History Graph

Daily Weather History Graph

Search for Another Location

Airport or City:

Trip Planner

Search our weather history database for the weather conditions in past years. The results will help you decide how hot, cold, wet, or windy it might be!

Date:

Astronomy

Feb. 07, 2014 Rise Set
Actual Time 6:46 AM MST 5:36 PM MST
Civil Twilight 6:21 AM MST 6:01 PM MST
Nautical Twilight 5:52 AM MST 6:30 PM MST
Astronomical Twilight 5:23 AM MST 6:59 PM MST
Moon 11:52 AM MST (2/7) 1:02 AM MST (2/7)
Length of Visible Light 11h 40m
Length of Day
10h 49m
First Quarter, 60% of the Moon is Illuminated
Feb 7
First Quarter
Feb 14
Full
Feb 22
Last Quarter
Mar 1
New
Mar 8
First Quarter

Hourly Weather History & Observations

Time (MST) Temp. Windchill Dew Point Humidity Pressure Visibility Wind Dir Wind Speed Gust Speed Precip Events Conditions
12:14 AM 24.1 °F 11.5 °F 15.1 °F 69% 30.11 in 10.0 mi SSE 15.0 mph 21.9 mph N/A   Overcast
12:37 AM 24.1 °F 12.5 °F 14.0 °F 65% 30.08 in 10.0 mi SSE 12.7 mph - N/A   Overcast
12:53 AM 24.1 °F 11.0 °F 12.9 °F 62% 30.12 in 10.0 mi SSE 16.1 mph - N/A   Overcast
1:53 AM 24.1 °F 12.5 °F 14.0 °F 65% 30.11 in 10.0 mi SSE 12.7 mph - N/A   Mostly Cloudy
2:53 AM 24.1 °F 11.5 °F 15.1 °F 69% 30.09 in 10.0 mi SSE 15.0 mph - N/A   Overcast
3:53 AM 24.1 °F 11.5 °F 17.1 °F 75% 30.08 in 9.0 mi SSE 15.0 mph - 0.00 in   Overcast
4:53 AM 24.1 °F 12.0 °F 16.0 °F 71% 30.10 in 10.0 mi SSE 13.8 mph - 0.00 in   Overcast
5:53 AM 24.1 °F 13.7 °F 16.0 °F 71% 30.11 in 10.0 mi SSE 10.4 mph - N/A   Mostly Cloudy
6:53 AM 24.1 °F 12.5 °F 16.0 °F 71% 30.12 in 10.0 mi SSE 12.7 mph 23.0 mph N/A   Overcast
7:53 AM 24.1 °F 11.5 °F 15.1 °F 69% 30.13 in 10.0 mi SSE 15.0 mph - N/A   Overcast
8:53 AM 25.0 °F 13.6 °F 16.0 °F 69% 30.15 in 10.0 mi SSE 12.7 mph - N/A   Scattered Clouds
9:53 AM 28.0 °F 17.0 °F 17.1 °F 63% 30.14 in 10.0 mi SSE 13.8 mph - N/A   Overcast
10:53 AM 34.0 °F 25.0 °F 19.0 °F 54% 30.12 in 10.0 mi SSE 12.7 mph - N/A   Clear
11:53 AM 39.0 °F 32.3 °F 21.0 °F 49% 30.08 in 10.0 mi SSE 10.4 mph - N/A   Clear
12:53 PM 45.0 °F 40.1 °F 23.0 °F 42% 30.02 in 10.0 mi SSE 9.2 mph - N/A   Clear
1:53 PM 48.9 °F - 24.1 °F 38% 29.98 in 10.0 mi SE 9.2 mph - N/A   Clear
2:53 PM 54.0 °F - 24.1 °F 31% 29.95 in 10.0 mi ESE 11.5 mph - N/A   Clear
3:53 PM 55.9 °F - 24.1 °F 29% 29.95 in 10.0 mi SE 11.5 mph - N/A   Clear
4:53 PM 55.9 °F - 25.0 °F 30% 29.95 in 10.0 mi South 6.9 mph - N/A   Clear
5:53 PM 52.0 °F - 25.0 °F 35% 29.98 in 10.0 mi WSW 6.9 mph - N/A   Clear
6:53 PM 46.0 °F 41.4 °F 26.1 °F 46% 30.01 in 10.0 mi SW 9.2 mph - N/A   Clear
7:53 PM 46.9 °F - 27.0 °F 46% 30.02 in 10.0 mi WSW 12.7 mph - N/A   Clear
8:53 PM 44.1 °F 40.8 °F 26.1 °F 49% 30.04 in 10.0 mi West 5.8 mph - N/A   Clear
9:53 PM 42.1 °F 39.2 °F 26.1 °F 53% 30.04 in 10.0 mi SE 4.6 mph - N/A   Clear
10:53 PM 45.0 °F 38.9 °F 27.0 °F 49% 30.01 in 10.0 mi WSW 12.7 mph - N/A   Clear
11:53 PM 46.0 °F 41.9 °F 27.0 °F 47% 29.99 in 10.0 mi WSW 8.1 mph - N/A   Clear